Location: Mountain_View
(35.6670°N, 81.4000°W)
Time: 19:39:47
(UTC-05:00)

ISS - Pass Details

Date: 25 November 2019
Orbit: 411 x 421 km, 51.6° (Epoch: 06 December)

Event Time Altitude Azimuth Distance (km) Brightness Sun altitude
Rises 17:46:30 0° 252° (WSW) 2,342 2.8 -6.9°
Reaches altitude 10° 17:48:46 10° 264° (W) 1,484 0.6 -7.4°
Maximum altitude 17:51:42 28° 326° (NW) 809 -2.2 -7.9°
Drops below altitude 10° 17:54:40 10° 28° (NNE) 1,496 -1.4 -8.5°
Enters shadow 17:55:20 - 33° (NNE) 1,740 -1.1 -8.6°
